#timestamp,LO_Frequency,Hit 
1505084415.3,286047001.0,N
1505084435.2,286047001.1,N
1505084455.9,286046998.3,N
1505084475.7,286046995.0,N
1505084495.5,286046997.8,N
1505084515.4,286046998.3,N
1505084535.2,286046994.9,N
1505084555.0,286046995.5,N
1505084555.9,286046995.5,N
1505084575.8,286047001.0,N
1505084595.6,286047003.4,N
1505084615.4,286047003.7,N
1505084635.3,286047005.9,N
1505084655.1,286047003.6,N
1505084675.8,286047004.0,N
1505084695.7,286047000.3,N
1505084715.5,286046999.5,N
1505084735.3,286047001.2,N
1505084755.2,286046999.5,N
1505084775.9,286046995.0,N
1505084795.7,286046995.6,N
1505084815.6,286046997.1,N
1505084835.4,286047000.3,N
1505084855.2,286047001.7,N
1505084875.0,286047005.2,N
1505084876.0,286047005.2,N
1505084895.8,286047003.4,N
1505084915.6,286047004.4,N
1505084935.4,286047005.6,N
1505084955.3,286047009.0,N
1505084975.1,286047006.4,N
1505084995.8,286047003.2,N
1505085015.7,286047004.2,N
1505085035.5,286047005.6,N
1505085055.3,286047004.8,N
1505085075.2,286047001.4,N
1505085095.9,286047002.1,N
1505085115.7,286047002.7,N
1505085135.6,286047003.7,N
1505085155.4,286047002.3,N
1505085175.2,286047000.3,N
1505085195.1,286047003.6,N
1505085196.0,286047003.6,N
1505085215.8,286047001.7,N
1505085235.6,286047002.9,N
1505085255.4,286047001.3,N
1505085275.3,286047001.3,N
1505085295.1,286047004.1,N
1505085315.8,286047002.8,N
1505085335.7,286047001.1,N
1505085355.5,286046997.1,N
1505085375.3,286046999.1,N
1505085395.2,286046998.3,N
1505085415.9,286046998.5,N
1505085435.7,286046999.4,N
1505085455.6,286046996.6,N
1505085475.4,286046997.1,N
1505085495.2,286047001.0,N
1505085515.1,286047008.7,P
1505085516.0,286047008.7,N
1505085535.8,286047006.7,N
1505085555.6,286047003.3,N
1505085575.5,286047001.9,N
1505085595.3,286047005.8,N
1505085615.1,286047008.8,P
1505085635.9,286046997.8,N
1505085655.7,286046995.5,N
1505085675.5,286046993.5,N
1505085695.4,286046996.4,N
1505085715.2,286046996.1,N
1505085735.0,286046995.1,N
1505085735.9,286046995.1,N
1505085755.8,286046999.2,N
1505085775.6,286046999.2,N
1505085795.4,286047001.2,N
1505085815.2,286046995.3,N
1505085835.1,286046992.4,N
1505085836.0,286046992.4,N
1505085855.8,286046992.5,N
1505085875.6,286046991.9,N
1505085895.5,286046993.4,N
1505085915.3,286046994.4,N
1505085935.1,286046990.6,N
1505085955.9,286046994.7,N
1505085975.7,286046996.4,N
1505085995.5,286046998.7,N
1505086015.4,286046999.2,N
1505086035.2,286046999.0,N
1505086055.0,286047000.3,N
1505086055.9,286047000.3,N
1505086075.8,286047000.0,N
1505086095.6,286047003.9,N
1505086115.4,286047002.7,N
1505086135.2,286047002.0,N
1505086155.1,286047001.6,N
1505086156.0,286047001.6,N
1505086175.8,286046999.9,N
1505086195.6,286046996.6,N
1505086215.5,286046995.7,N
1505086235.3,286046997.6,N
1505086255.1,286046998.7,N
1505086275.9,286047002.8,N
1505086295.7,286047001.1,N
1505086315.5,286047000.7,N
1505086335.4,286047000.0,N
1505086355.2,286046998.4,N
1505086375.0,286047001.4,N
1505086375.9,286047001.4,N
1505086395.8,286046999.3,N
1505086415.6,286046995.7,N
1505086435.4,286046994.6,N
1505086455.3,286046995.8,N
1505086475.1,286046997.1,N
1505086476.0,286046997.1,N
1505086495.8,286046995.5,N
1505086515.7,286046993.3,N
1505086535.5,286046996.0,N
1505086555.3,286046997.3,N
1505086575.1,286046997.4,N
1505086595.9,286046998.6,N
1505086615.7,286046995.7,N
1505086635.5,286046995.5,N
1505086655.4,286046993.6,N
1505086675.2,286046996.0,N
1505086695.0,286046992.8,N
1505086695.9,286046992.8,N
1505086715.8,286046991.6,P
1505086735.6,286046994.8,N
1505086755.4,286046993.3,N
1505086775.3,286047000.6,N
1505086795.1,286047002.6,N
1505086815.8,286046999.8,N
1505086835.7,286047000.4,N
1505086855.5,286047005.6,N
1505086875.3,286047001.7,N
1505086895.2,286046998.7,N
1505086915.9,286046997.7,N
1505086935.7,286046994.4,N
1505086955.6,286046990.6,N
1505086975.4,286046991.1,N
1505086995.2,286046992.8,N
1505087015.0,286046994.3,N
1505087015.9,286046994.3,N
1505087035.8,286046993.0,N
1505087055.6,286046996.6,N
1505087075.4,286047001.7,N
1505087095.3,286047004.0,N
1505087115.1,286047002.6,N
1505087135.8,286047005.6,N
1505087155.7,286047004.1,N
1505087175.5,286047002.8,N
1505087195.3,286047002.3,N
1505087215.2,286047001.2,N
1505087235.9,286046997.1,N
1505087255.7,286046995.3,N
1505087275.5,286046997.5,N
1505087295.4,286046997.0,N
1505087315.2,286047000.4,N
1505087335.0,286047002.5,N
1505087335.9,286047002.5,N
1505087355.8,286047002.4,N
1505087375.6,286047001.0,N
1505087395.4,286047000.8,N
1505087415.3,286047005.7,N
1505087435.1,286047007.6,N
1505087455.8,286046999.8,N
1505087475.7,286047002.8,N
1505087495.5,286046999.8,N
1505087515.3,286047003.3,N
1505087535.2,286047003.6,N
1505087555.9,286047003.2,N
1505087575.7,286047000.7,N
1505087595.6,286046998.2,N
1505087615.4,286046998.2,N
1505087635.2,286047002.1,N
1505087655.0,286047000.1,N
1505087656.0,286047000.1,N
1505087675.8,286046999.9,N
1505087695.6,286047000.4,N
1505087715.4,286046996.7,N
1505087735.3,286046998.4,N
1505087755.1,286047001.2,N
1505087775.8,286047000.0,N
1505087795.7,286047000.6,N
1505087815.5,286047004.1,N
1505087835.3,286047004.3,N
1505087855.2,286047008.6,P
1505087875.0,286047009.2,N
1505087875.9,286047009.2,N
1505087895.7,286047006.4,N
1505087915.6,286047002.0,N
1505087935.4,286047001.2,N
1505087955.2,286046998.8,N
1505087975.1,286047000.3,N
1505087976.0,286047000.3,N
1505087995.8,286047002.4,N
